FW4770 Weather Reports


time (UTC)temp
C
wind
direction
speed
KPH
gust
KPH
rain 1hr
cm
rain 24hr
cm
rain mn
cm
humidity
%
barometer
mb
20260503204709 20 5 19.3 29.0 0.00 0.00 0.00 28 1006.2
20260503204614 20 355 19.3 29.0 0.00 0.00 0.00 30 1006.2
20260503204521 20 342 19.3 29.0 0.00 0.00 0.00 28 1006.0
20260503204406 20 303 19.3 29.0 0.00 0.00 0.00 29 1006.0
20260503204310 20 322 19.3 29.0 0.00 0.00 0.00 28 1006.0
20260503204214 20 305 14.5 37.0 0.00 0.00 0.00 30 1006.1
20260503204118 20 330 12.9 37.0 0.00 0.00 0.00 28 1006.1
20260503204021 20 349 12.9 38.6 0.00 0.00 0.00 29 1006.1
20260503203928 20 343 12.9 38.6 0.00 0.00 0.00 29 1006.1
20260503203805 20 348 16.1 38.6 0.00 0.00 0.00 28 1006.1
20260503203709 20 334 19.3 38.6 0.00 0.00 0.00 29 1006.1
20260503203614 20 331 20.9 38.6 0.00 0.00 0.00 31 1006.1
20260503203519 20 340 20.9 38.6 0.00 0.00 0.00 29 1006.1
20260503203424 20 355 20.9 38.6 0.00 0.00 0.00 30 1006.0
20260503203311 20 298 22.5 38.6 0.00 0.00 0.00 30 1006.0
20260503203236 20 308 17.7 38.6 0.00 0.00 0.00 28 1006.0
20260503203120 20 298 14.5 29.0 0.00 0.00 0.00 29 1006.0
20260503203005 20 355 14.5 29.0 0.00 0.00 0.00 27 1006.1
20260503202929 20 350 17.7 29.0 0.00 0.00 0.00 27 1006.2
20260503202812 20 5 19.3 29.0 0.00 0.00 0.00 29 1006.2
20260503202737 20 355 20.9 29.0 0.00 0.00 0.00 28 1006.3
20260503202624 20 348 20.9 29.0 0.00 0.00 0.00 31 1006.0
20260503202508 20 338 19.3 27.4 0.00 0.00 0.00 28 1006.2
20260503202411 20 355 17.7 25.7 0.00 0.00 0.00 30 1006.1
20260503202315 20 9 16.1 25.7 0.00 0.00 0.00 28 1006.1
20260503202239 20 23 12.9 25.7 0.00 0.00 0.00 29 1006.1
20260503202122 20 14 11.3 24.1 0.00 0.00 0.00 29 1006.2
20260503202010 20 5 14.5 24.1 0.00 0.00 0.00 28 1006.1
20260503201915 20 346 16.1 24.1 0.00 0.00 0.00 29 1006.2
20260503201818 20 9 14.5 24.1 0.00 0.00 0.00 28 1006.2
20260503201722 21 26 14.5 22.5 0.00 0.00 0.00 30 1006.2
20260503201606 20 12 16.1 22.5 0.00 0.00 0.00 29 1006.2
20260503201530 20 33 14.5 22.5 0.00 0.00 0.00 32 1006.3
20260503201414 20 360 14.5 20.9 0.00 0.00 0.00 31 1006.3
20260503201322 20 328 14.5 20.9 0.00 0.00 0.00 29 1006.2
20260503201226 20 360 12.9 22.5 0.00 0.00 0.00 30 1006.2
20260503201109 20 11 12.9 22.5 0.00 0.00 0.00 28 1006.2
20260503201014 20 23 12.9 27.4 0.00 0.00 0.00 28 1006.2
20260503200919 20 43 12.9 27.4 0.00 0.00 0.00 29 1006.3
20260503200823 20 5 9.7 27.4 0.00 0.00 0.00 28 1006.2
20260503200731 20 14 8.0 27.4 0.00 0.00 0.00 30 1006.2
20260503200614 20 313 9.7 27.4 0.00 0.00 0.00 32 1006.2
20260503200519 20 360 12.9 27.4 0.00 0.00 0.00 30 1006.2
20260503200422 20 50 14.5 27.4 0.00 0.00 0.00 30 1006.3
20260503200327 21 53 12.9 27.4 0.00 0.00 0.00 30 1006.3
20260503200229 20 346 9.7 27.4 0.00 0.00 0.00 34 1006.3
20260503200133 20 285 8.0 22.5 0.00 0.00 0.00 32 1006.2
20260503200015 20 329 11.3 22.5 0.00 0.00 0.00 31 1006.3
20260503195923 20 339 9.7 22.5 0.00 0.00 0.00 30 1006.3
20260503195807 20 339 9.7 33.8 0.00 0.00 0.00 31 1006.3
20260503195732 20 304 11.3 33.8 0.00 0.00 0.00 30 1006.3
20260503195615 20 333 12.9 33.8 0.00 0.00 0.00 30 1006.3
20260503195520 20 329 14.5 33.8 0.00 0.00 0.00 30 1006.3
20260503195405 20 344 14.5 33.8 0.00 0.00 0.00 29 1006.4
20260503195329 20 355 14.5 33.8 0.00 0.00 0.00 31 1006.4
20260503195216 20 347 14.5 33.8 0.00 0.00 0.00 31 1006.3
20260503195140 20 360 17.7 33.8 0.00 0.00 0.00 33 1006.4
20260503195004 20 321 16.1 33.8 0.00 0.00 0.00 33 1006.3
20260503194909 20 329 12.9 27.4 0.00 0.00 0.00 33 1006.3
20260503194833 20 299 11.3 27.4 0.00 0.00 0.00 37 1006.3
20260503194716 20 308 12.9 29.0 0.00 0.00 0.00 35 1006.4
20260503194619 20 330 14.5 29.0 0.00 0.00 0.00 33 1006.3
20260503194507 20 337 16.1 29.0 0.00 0.00 0.00 36 1006.3
20260503194412 21 303 12.9 29.0 0.00 0.00 0.00 37 1006.3
20260503194316 21 331 12.9 29.0 0.00 0.00 0.00 35 1006.4
20260503194241 21 300 17.7 29.0 0.00 0.00 0.00 31 1006.3
20260503194104 21 351 16.1 29.0 0.00 0.00 0.00 32 1006.4
20260503194008 20 348 14.5 29.0 0.00 0.00 0.00 36 1006.3
20260503193917 20 355 14.5 29.0 0.00 0.00 0.00 37 1006.4
20260503193821 20 9 9.7 29.0 0.00 0.00 0.00 35 1006.3
20260503193706 20 5 9.7 19.3 0.00 0.00 0.00 34 1006.3
20260503193630 20 331 12.9 19.3 0.00 0.00 0.00 32 1006.3
20260503193507 20 12 14.5 19.3 0.00 0.00 0.00 31 1006.4
20260503193411 20 328 12.9 19.3 0.00 0.00 0.00 32 1006.4
20260503193319 20 5 12.9 22.5 0.00 0.00 0.00 33 1006.3
20260503193223 20 25 12.9 22.5 0.00 0.00 0.00 32 1006.4
20260503193107 21 32 11.3 22.5 0.00 0.00 0.00 32 1006.4
20260503193030 21 360 9.7 22.5 0.00 0.00 0.00 31 1006.4
20260503192912 20 28 9.7 25.7 0.00 0.00 0.00 32 1006.5
20260503192817 20 30 14.5 25.7 0.00 0.00 0.00 31 1006.5
20260503192705 20 5 14.5 27.4 0.00 0.00 0.00 32 1006.6
20260503192631 20 350 16.1 27.4 0.00 0.00 0.00 32 1006.5
20260503192506 20 339 12.9 32.2 0.00 0.00 0.00 31 1006.5
20260503192411 20 328 11.3 32.2 0.00 0.00 0.00 33 1006.6
20260503192314 20 312 11.3 32.2 0.00 0.00 0.00 31 1006.6
20260503192238 20 335 14.5 32.2 0.00 0.00 0.00 32 1006.6
20260503192121 20 312 19.3 32.2 0.00 0.00 0.00 30 1006.7
20260503192009 20 334 20.9 32.2 0.00 0.00 0.00 29 1006.7
20260503191913 20 26 19.3 32.2 0.00 0.00 0.00 31 1006.8
20260503191817 20 349 19.3 32.2 0.00 0.00 0.00 30 1006.7
20260503191722 20 5 19.3 32.2 0.00 0.00 0.00 32 1006.8
20260503191607 20 5 17.7 29.0 0.00 0.00 0.00 32 1006.8
20260503191532 20 360 17.7 30.6 0.00 0.00 0.00 29 1006.8
20260503191419 20 360 17.7 30.6 0.00 0.00 0.00 29 1006.8
20260503191323 20 331 17.7 30.6 0.00 0.00 0.00 30 1006.7
20260503191228 20 25 19.3 30.6 0.00 0.00 0.00 29 1006.8
20260503191131 20 329 20.9 30.6 0.00 0.00 0.00 29 1006.7
20260503191035 20 350 20.9 30.6 0.00 0.00 0.00 30 1006.7
20260503190919 20 360 17.7 30.6 0.00 0.00 0.00 30 1006.7
20260503190843 20 341 20.9 30.6 0.00 0.00 0.00 28 1006.9
20260503190725 20 338 17.7 29.0 0.00 0.00 0.00 31 1006.7
20260503190612 20 360 14.5 27.4 0.00 0.00 0.00 32 1006.9
20260503190516 20 10 14.5 27.4 0.00 0.00 0.00 30 1006.8
20260503190421 20 5 16.1 27.4 0.00 0.00 0.00 32 1006.6
20260503190325 20 20 17.7 27.4 0.00 0.00 0.00 33 1006.8
20260503190249 20 355 19.3 32.2 0.00 0.00 0.00 31 1007.0
20260503190105 20 26 16.1 32.2 0.00 0.00 0.00 31 1006.8
20260503190009 20 309 17.7 32.2 0.00 0.00 0.00 31 1006.7
20260503185918 20 9 19.3 32.2 0.00 0.00 0.00 30 1006.7
20260503185819 20 345 17.7 32.2 0.00 0.00 0.00 31 1006.8
20260503185704 20 347 16.1 32.2 0.00 0.00 0.00 31 1006.9
20260503185609 20 15 17.7 32.2 0.00 0.00 0.00 33 1006.8
20260503185514 20 355 19.3 32.2 0.00 0.00 0.00 33 1006.9
20260503185417 20 343 16.1 32.2 0.00 0.00 0.00 33 1006.8
20260503185344 20 331 16.1 25.7 0.00 0.00 0.00 33 1006.8
20260503185228 20 344 16.1 25.7 0.00 0.00 0.00 31 1006.9
20260503185130 20 348 12.9 25.7 0.00 0.00 0.00 34 1006.7
20260503185014 20 355 8.0 25.7 0.00 0.00 0.00 34 1006.7
20260503184919 20 17 9.7 27.4 0.00 0.00 0.00 35 1006.7
20260503184805 20 300 16.1 27.4 0.00 0.00 0.00 31 1006.8
20260503184709 20 346 17.7 27.4 0.00 0.00 0.00 30 1006.7
20260503184618 20 331 17.7 27.4 0.00 0.00 0.00 32 1006.8
20260503184504 20 355 19.3 27.4 0.00 0.00 0.00 33 1006.7
20260503184430 20 329 19.3 27.4 0.00 0.00 0.00 34 1006.8
20260503184313 20 344 16.1 27.4 0.00 0.00 0.00 33 1006.8
20260503184216 20 348 16.1 30.6 0.00 0.00 0.00 34 1006.8
20260503184138 20 314 16.1 30.6 0.00 0.00 0.00 32 1006.8
20260503184006 20 340 14.5 30.6 0.00 0.00 0.00 33 1006.7
20260503183912 20 10 16.1 30.6 0.00 0.00 0.00 33 1006.8
20260503183816 20 5 14.5 30.6 0.00 0.00 0.00 33 1006.8
20260503183741 20 5 9.7 30.6 0.00 0.00 0.00 35 1006.8
20260503183605 20 20 14.5 30.6 0.00 0.00 0.00 33 1006.9
20260503183510 20 44 19.3 30.6 0.00 0.00 0.00 34 1007.0
20260503183324 20 360 9.7 29.0 0.00 0.00 0.00 32 1006.9
20260503183207 20 44 16.1 29.0 0.00 0.00 0.00 33 1007.0
20260503183112 20 12 14.5 29.0 0.00 0.00 0.00 31 1006.8
20260503183036 20 22 14.5 29.0 0.00 0.00 0.00 33 1006.8
20260503182919 20 49 16.1 29.0 0.00 0.00 0.00 33 1006.8
20260503182843 20 24 17.7 29.0 0.00 0.00 0.00 33 1006.9
20260503182727 20 18 16.1 29.0 0.00 0.00 0.00 36 1007.0
20260503182613 20 22 14.5 29.0 0.00 0.00 0.00 34 1006.9
20260503182517 20 42 16.1 29.0 0.00 0.00 0.00 35 1007.0
20260503182422 20 14 14.5 29.0 0.00 0.00 0.00 34 1006.9
20260503182326 20 5 12.9 29.0 0.00 0.00 0.00 35 1006.9
20260503182208 20 346 12.9 29.0 0.00 0.00 0.00 36 1006.9
20260503182114 20 61 16.1 29.0 0.00 0.00 0.00 36 1007.0
20260503182038 20 13 17.7 29.0 0.00 0.00 0.00 33 1007.1
20260503181905 20 32 19.3 33.8 0.00 0.00 0.00 35 1007.1
20260503181809 20 34 19.3 33.8 0.00 0.00 0.00 36 1007.6
20260503181713 20 344 19.3 33.8 0.00 0.00 0.00 36 1007.0
20260503181617 20 47 16.1 33.8 0.00 0.00 0.00 37 1007.1
20260503181520 20 26 14.5 33.8 0.00 0.00 0.00 38 1007.3
20260503181410 20 15 16.1 33.8 0.00 0.00 0.00 37 1007.2
20260503181313 20 344 19.3 33.8 0.00 0.00 0.00 35 1007.1
20260503181217 20 360 22.5 33.8 0.00 0.00 0.00 35 1007.2
20260503181122 20 5 22.5 33.8 0.00 0.00 0.00 34 1007.2
20260503181006 20 360 22.5 33.8 0.00 0.00 0.00 35 1007.2
20260503180910 20 355 24.1 33.8 0.00 0.00 0.00 35 1007.1
20260503180834 20 360 20.9 33.8 0.00 0.00 0.00 36 1007.0
20260503180741 20 340 16.1 33.8 0.00 0.00 0.00 37 1007.4
20260503180604 20 338 12.9 25.7 0.00 0.00 0.00 39 1007.0
20260503180528 20 331 14.5 25.7 0.00 0.00 0.00 39 1007.0
20260503180411 20 25 17.7 25.7 0.00 0.00 0.00 41 1007.2
20260503180316 20 347 19.3 25.7 0.00 0.00 0.00 40 1007.1
20260503180221 20 349 16.1 24.1 0.00 0.00 0.00 43 1007.0
20260503180145 20 39 17.7 24.1 0.00 0.00 0.00 41 1007.0
20260503180031 20 350 19.3 24.1 0.00 0.00 0.00 41 1007.4
20260503175906 20 21 16.1 24.1 0.00 0.00 0.00 44 1007.0
20260503175811 20 5 14.5 20.9 0.00 0.00 0.00 44 1007.0
20260503175715 20 360 9.7 20.9 0.00 0.00 0.00 45 1007.1
20260503175640 20 331 9.7 20.9 0.00 0.00 0.00 44 1007.0
20260503175504 20 338 9.7 20.9 0.00 0.00 0.00 44 1006.9
20260503175412 20 249 9.7 20.9 0.00 0.00 0.00 43 1006.9
20260503175337 20 360 9.7 25.7 0.00 0.00 0.00 46 1007.0
20260503175220 20 330 12.9 25.7 0.00 0.00 0.00 44 1007.1
20260503175104 19 333 12.9 25.7 0.00 0.00 0.00 45 1007.1
20260503175028 19 42 11.3 25.7 0.00 0.00 0.00 44 1007.0
20260503174911 19 39 11.3 25.7 0.00 0.00 0.00 44 1007.3
20260503174817 19 76 9.7 25.7 0.00 0.00 0.00 44 1007.1
20260503174705 19 30 14.5 25.7 0.00 0.00 0.00 43 1007.2
20260503174629 19 355 17.7 25.7 0.00 0.00 0.00 43 1007.2
20260503174507 19 334 11.3 24.1 0.00 0.00 0.00 44 1007.0
20260503174410 19 77 8.0 20.9 0.00 0.00 0.00 42 1007.1
20260503174316 20 44 8.0 20.9 0.00 0.00 0.00 43 1007.1
20260503174240 20 32 9.7 20.9 0.00 0.00 0.00 43 1007.0
20260503174142 20 26 12.9 20.9 0.00 0.00 0.00 48 1007.2
20260503174010 20 360 12.9 24.1 0.00 0.00 0.00 46 1007.2
20260503173914 19 32 9.7 24.1 0.00 0.00 0.00 46 1007.1
20260503173818 19 355 8.0 24.1 0.00 0.00 0.00 44 1007.1
20260503173722 19 9 9.7 25.7 0.00 0.00 0.00 45 1007.1
20260503173626 19 320 12.9 25.7 0.00 0.00 0.00 44 1007.1
20260503173551 19 342 11.3 25.7 0.00 0.00 0.00 47 1007.2
20260503173407 19 345 11.3 25.7 0.00 0.00 0.00 45 1007.1
20260503173315 19 51 14.5 25.7 0.00 0.00 0.00 43 1007.2
20260503173220 19 42 12.9 25.7 0.00 0.00 0.00 42 1007.3
20260503173123 19 5 11.3 25.7 0.00 0.00 0.00 45 1007.3
20260503173005 19 5 17.7 25.7 0.00 0.00 0.00 42 1007.3
20260503172909 19 18 19.3 25.7 0.00 0.00 0.00 42 1007.3
20260503172815 19 26 16.1 25.7 0.00 0.00 0.00 46 1007.6
20260503172723 19 42 11.3 22.5 0.00 0.00 0.00 46 1007.3
20260503172628 19 32 9.7 24.1 0.00 0.00 0.00 48 1007.3
20260503172512 19 38 11.3 27.4 0.00 0.00 0.00 46 1007.4
20260503172417 19 17 12.9 27.4 0.00 0.00 0.00 45 1007.5
20260503172322 19 48 14.5 27.4 0.00 0.00 0.00 45 1007.5
20260503172207 19 28 14.5 27.4 0.00 0.00 0.00 44 1007.5
20260503172116 19 29 12.9 27.4 0.00 0.00 0.00 45 1007.4
20260503172022 18 44 14.5 27.4 0.00 0.00 0.00 42 1007.5
20260503171907 18 30 17.7 27.4 0.00 0.00 0.00 43 1007.6
20260503171812 18 32 19.3 27.4 0.00 0.00 0.00 45 1007.5
20260503171718 18 345 19.3 27.4 0.00 0.00 0.00 45 1007.7
20260503171622 18 76 16.1 24.1 0.00 0.00 0.00 44 1007.5
20260503171512 18 51 17.7 24.1 0.00 0.00 0.00 46 1007.4
20260503171418 18 26 16.1 24.1 0.00 0.00 0.00 45 1007.6
20260503171304 18 39 12.9 24.1 0.00 0.00 0.00 45 1007.5
20260503171210 18 55 12.9 24.1 0.00 0.00 0.00 44 1007.5
20260503171113 18 51 14.5 24.1 0.00 0.00 0.00 45 1007.5
20260503171004 18 38 17.7 24.1 0.00 0.00 0.00 45 1007.5
20260503170908 18 40 17.7 24.1 0.00 0.00 0.00 43 1007.7
20260503170814 18 41 17.7 24.1 0.00 0.00 0.00 43 1007.4
20260503170719 18 40 16.1 24.1 0.00 0.00 0.00 44 1007.5
20260503170603 18 32 12.9 27.4 0.00 0.00 0.00 45 1007.5
20260503170507 18 26 11.3 27.4 0.00 0.00 0.00 46 1007.5
20260503170431 18 340 16.1 27.4 0.00 0.00 0.00 44 1007.5
20260503170339 18 44 17.7 27.4 0.00 0.00 0.00 44 1007.6
20260503170220 18 24 16.1 27.4 0.00 0.00 0.00 43 1007.5
20260503170124 18 64 17.7 27.4 0.00 0.00 0.00 44 1007.7
20260503160118 18 355 14.5 27.4 0.00 0.00 0.00 50 1007.3
20260503150948 17 46 16.1 27.4 0.00 0.00 0.00 53 1007.2
20260503150804 16 59 16.1 33.8 0.00 0.00 0.00 53 1007.4
20260503150706 16 38 17.7 33.8 0.00 0.00 0.00 52 1007.1
20260503150631 16 69 17.7 33.8 0.00 0.00 0.00 51 1007.3
20260503150513 16 78 17.7 33.8 0.00 0.00 0.00 50 1007.3
20260503150417 16 47 17.7 33.8 0.00 0.00 0.00 50 1007.3
20260503150318 16 68 17.7 33.8 0.00 0.00 0.00 51 1007.3
20260503150206 16 40 20.9 33.8 0.00 0.00 0.00 50 1007.2
20260503150109 16 41 22.5 33.8 0.00 0.00 0.00 50 1007.4
20260503140250 15 35 24.1 32.2 0.00 0.00 0.00 56 1007.0
20260503140105 15 86 20.9 27.4 0.00 0.00 0.00 56 1007.0
20260503131408 13 41 6.4 19.3 0.00 0.00 0.00 57 1006.4
20260503131312 13 360 6.4 19.3 0.00 0.00 0.00 57 1006.4
20260503131236 13 26 6.4 19.3 0.00 0.00 0.00 56 1006.4
20260503131122 13 43 11.3 19.3 0.00 0.00 0.00 57 1006.5
20260503131046 13 27 12.9 19.3 0.00 0.00 0.00 56 1006.5
20260503130950 13 36 11.3 19.3 0.00 0.00 0.00 57 1006.4
20260503130806 13 360 8.0 14.5 0.00 0.00 0.00 57 1006.4
20260503130709 13 13 6.4 14.5 0.00 0.00 0.00 56 1006.5
20260503130614 13 47 6.4 14.5 0.00 0.00 0.00 56 1006.4
20260503130518 13 355 8.0 14.5 0.00 0.00 0.00 56 1006.3
20260503130406 13 355 8.0 14.5 0.00 0.00 0.00 56 1006.3
20260503130310 13 21 8.0 14.5 0.00 0.00 0.00 56 1006.3
20260503130215 13 5 8.0 14.5 0.00 0.00 0.00 56 1006.4
20260503130140 13 9 9.7 14.5 0.00 0.00 0.00 56 1006.4
20260503120111 10 242 0.0 0.0 0.00 0.00 0.00 66 1005.7
20260503110828 11 242 1.6 4.8 0.00 0.00 0.00 55 1005.0
20260503110715 11 242 1.6 4.8 0.00 0.00 0.00 55 1005.0
20260503110621 11 242 3.2 4.8 0.00 0.00 0.00 55 1005.0
20260503110504 11 242 1.6 4.8 0.00 0.00 0.00 55 1005.0
20260503110429 11 242 1.6 4.8 0.00 0.00 0.00 55 1005.0
20260503110305 11 242 1.6 4.8 0.00 0.00 0.00 55 1005.0
20260503110208 12 242 1.6 4.8 0.00 0.00 0.00 55 1005.0
20260503110116 12 242 3.2 6.4 0.00 0.00 0.00 55 1005.0
20260503100231 13 258 11.3 19.3 0.00 0.00 0.00 50 1005.2
20260503100118 13 279 11.3 19.3 0.00 0.00 0.00 50 1005.1
20260503090507 14 232 4.8 17.7 0.00 0.00 0.00 51 1005.4
20260503090415 14 257 4.8 17.7 0.00 0.00 0.00 51 1005.4
20260503090319 14 244 4.8 17.7 0.00 0.00 0.00 51 1005.4
20260503090205 14 253 8.0 17.7 0.00 0.00 0.00 51 1005.5
20260503090128 14 271 9.7 17.7 0.00 0.00 0.00 51 1005.4
20260503081608 14 222 9.7 22.5 0.00 0.00 0.00 55 1005.6
20260503081531 14 231 12.9 22.5 0.00 0.00 0.00 55 1005.7
20260503081414 14 231 12.9 22.5 0.00 0.00 0.00 55 1005.6
20260503081316 14 264 9.7 22.5 0.00 0.00 0.00 55 1005.6
20260503081219 14 225 6.4 22.5 0.00 0.00 0.00 55 1005.7
20260503081107 14 246 8.0 22.5 0.00 0.00 0.00 55 1005.7
20260503081009 14 252 8.0 22.5 0.00 0.00 0.00 55 1005.7
20260503080912 14 270 9.7 22.5 0.00 0.00 0.00 55 1005.7
20260503080815 14 245 9.7 22.5 0.00 0.00 0.00 55 1005.6
20260503080718 14 232 6.4 12.9 0.00 0.00 0.00 55 1005.7
20260503080641 14 221 4.8 14.5 0.00 0.00 0.00 55 1005.8
20260503080504 14 217 6.4 14.5 0.00 0.00 0.00 55 1005.8
20260503080411 14 240 8.0 14.5 0.00 0.00 0.00 55 1005.8
20260503080314 14 251 6.4 14.5 0.00 0.00 0.00 55 1005.7
20260503080218 14 238 6.4 14.5 0.00 0.00 0.00 55 1005.8
20260503080121 14 251 6.4 14.5 0.00 0.00 0.00 55 1005.8
20260503072926 14 221 8.0 14.5 0.00 0.00 0.00 55 1006.0
20260503072829 14 231 9.7 14.5 0.00 0.00 0.00 55 1006.1
20260503072704 14 248 8.0 14.5 0.00 0.00 0.00 56 1006.0
20260503072627 14 257 6.4 12.9 0.00 0.00 0.00 56 1006.1
20260503072550 14 271 6.4 12.9 0.00 0.00 0.00 56 1006.2
20260503072405 14 240 6.4 12.9 0.00 0.00 0.00 56 1006.1
20260503072314 14 212 6.4 12.9 0.00 0.00 0.00 56 1006.2
20260503072239 14 245 8.0 12.9 0.00 0.00 0.00 56 1006.2
20260503072121 14 228 8.0 12.9 0.00 0.00 0.00 56 1006.2
20260503072006 13 235 8.0 12.9 0.00 0.00 0.00 56 1006.2
20260503071930 13 244 6.4 12.9 0.00 0.00 0.00 56 1006.2
20260503071806 13 216 6.4 12.9 0.00 0.00 0.00 56 1006.2
20260503071710 13 209 6.4 12.9 0.00 0.00 0.00 56 1006.2
20260503071619 13 217 6.4 12.9 0.00 0.00 0.00 56 1006.2
20260503071522 13 219 8.0 12.9 0.00 0.00 0.00 56 1006.2
20260503071427 13 239 6.4 14.5 0.00 0.00 0.00 57 1006.3
20260503071309 13 234 6.4 14.5 0.00 0.00 0.00 56 1006.3
20260503071214 13 234 6.4 14.5 0.00 0.00 0.00 56 1006.3
20260503071119 13 224 4.8 14.5 0.00 0.00 0.00 56 1006.3
20260503071041 13 217 4.8 14.5 0.00 0.00 0.00 56 1006.3
20260503070909 13 208 4.8 14.5 0.00 0.00 0.00 56 1006.3
20260503070813 13 212 4.8 14.5 0.00 0.00 0.00 56 1006.4
20260503070736 13 215 4.8 14.5 0.00 0.00 0.00 56 1006.3
20260503070620 13 225 3.2 14.5 0.00 0.00 0.00 56 1006.4
20260503070545 13 227 4.8 14.5 0.00 0.00 0.00 56 1006.4
20260503070448 13 231 4.8 14.5 0.00 0.00 0.00 56 1006.6
20260503070304 13 217 4.8 14.5 0.00 0.00 0.00 56 1006.6
20260503070212 13 194 6.4 14.5 0.00 0.00 0.00 56 1006.6
20260503070117 13 192 8.0 14.5 0.00 0.00 0.00 55 1006.6
20260503060311 14 219 9.7 16.1 0.00 0.00 0.00 51 1007.4
20260503060235 14 209 9.7 16.1 0.00 0.00 0.00 51 1007.4
20260503060103 14 215 6.4 12.9 0.00 0.00 0.00 51 1007.5
20260503055126 14 227 6.4 17.7 0.00 0.00 0.00 50 1007.7
20260503055010 14 211 8.0 17.7 0.00 0.00 0.00 50 1007.8
20260503054933 14 242 9.7 17.7 0.00 0.00 0.00 50 1007.7
20260503054819 14 229 9.7 17.7 0.00 0.00 0.00 50 1007.8
20260503054704 14 241 6.4 17.7 0.00 0.00 0.00 50 1007.9
20260503054629 14 219 4.8 16.1 0.00 0.00 0.00 50 1007.8
20260503054505 14 223 4.8 16.1 0.00 0.00 0.00 50 1007.8
20260503054429 14 231 8.0 17.7 0.00 0.00 0.00 51 1007.9
20260503054306 14 202 8.0 17.7 0.00 0.00 0.00 50 1007.9
20260503054215 14 240 8.0 17.7 0.00 0.00 0.00 51 1007.9
20260503054118 14 217 9.7 17.7 0.00 0.00 0.00 50 1007.8
20260503054018 14 183 9.7 17.7 0.00 0.00 0.00 50 1007.8
20260503053904 14 198 8.0 17.7 0.00 0.00 0.00 50 1007.9
20260503053827 14 227 8.0 17.7 0.00 0.00 0.00 51 1007.9
20260503053710 14 231 9.7 17.7 0.00 0.00 0.00 51 1008.0
20260503053615 14 201 11.3 17.7 0.00 0.00 0.00 50 1008.0
20260503053522 14 244 8.0 17.7 0.00 0.00 0.00 51 1007.9
20260503053425 14 241 6.4 17.7 0.00 0.00 0.00 51 1008.0
20260503053303 14 251 4.8 17.7 0.00 0.00 0.00 51 1008.0
20260503053207 14 221 8.0 17.7 0.00 0.00 0.00 51 1008.0
20260503053111 14 220 11.3 17.7 0.00 0.00 0.00 50 1007.9
20260503053015 14 242 11.3 17.7 0.00 0.00 0.00 50 1008.0
20260503052944 14 232 9.7 17.7 0.00 0.00 0.00 51 1008.0
20260503052847 14 248 6.4 17.7 0.00 0.00 0.00 52 1008.0
20260503052703 14 245 8.0 17.7 0.00 0.00 0.00 51 1008.0
20260503052608 14 247 8.0 17.7 0.00 0.00 0.00 51 1008.0
20260503052531 14 223 9.7 17.7 0.00 0.00 0.00 51 1007.9
20260503052414 14 235 8.0 17.7 0.00 0.00 0.00 51 1007.9
20260503052338 14 234 8.0 16.1 0.00 0.00 0.00 51 1007.9
20260503052204 14 214 8.0 16.1 0.00 0.00 0.00 52 1007.9
20260503052108 14 227 6.4 12.9 0.00 0.00 0.00 52 1007.8
20260503052012 14 235 6.4 14.5 0.00 0.00 0.00 51 1007.9
20260503051917 14 229 8.0 14.5 0.00 0.00 0.00 52 1007.9
20260503051819 14 220 8.0 14.5 0.00 0.00 0.00 52 1007.9
20260503051723 14 254 8.0 14.5 0.00 0.00 0.00 52 1008.0
20260503051611 14 232 8.0 14.5 0.00 0.00 0.00 52 1007.9
20260503051514 14 214 6.4 14.5 0.00 0.00 0.00 52 1007.9
20260503051418 14 234 6.4 14.5 0.00 0.00 0.00 52 1007.9
20260503051322 14 206 8.0 14.5 0.00 0.00 0.00 52 1007.9
20260503051227 14 206 9.7 14.5 0.00 0.00 0.00 52 1007.9
20260503051130 14 197 8.0 14.5 0.00 0.00 0.00 51 1007.9
20260503051012 14 193 9.7 14.5 0.00 0.00 0.00 51 1007.9
20260503050920 14 190 8.0 14.5 0.00 0.00 0.00 51 1007.9
20260503050824 14 202 8.0 14.5 0.00 0.00 0.00 51 1007.9
20260503050748 14 198 8.0 11.3 0.00 0.00 0.00 51 1008.0
20260503050603 14 199 6.4 11.3 0.00 0.00 0.00 51 1008.0
20260503050527 14 198 6.4 11.3 0.00 0.00 0.00 51 1008.0
20260503050404 15 227 6.4 11.3 0.00 0.00 0.00 51 1008.0
20260503050307 15 207 6.4 11.3 0.00 0.00 0.00 51 1008.0
20260503050215 15 207 6.4 11.3 0.00 0.00 0.00 51 1008.1
20260503050119 15 207 6.4 11.3 0.00 0.00 0.00 51 1008.1
20260503050014 15 202 6.4 11.3 0.00 0.00 0.00 51 1008.1
20260503045919 15 219 6.4 11.3 0.00 0.00 0.00 51 1008.1
20260503045842 15 217 6.4 11.3 0.00 0.00 0.00 51 1008.1
20260503045705 15 197 4.8 14.5 0.00 0.00 0.00 51 1008.1
20260503045613 15 216 4.8 14.5 0.00 0.00 0.00 51 1008.1
20260503045517 15 213 4.8 14.5 0.00 0.00 0.00 51 1008.1
20260503045422 15 213 4.8 14.5 0.00 0.00 0.00 51 1008.2
20260503045326 15 223 4.8 14.5 0.00 0.00 0.00 51 1008.1
20260503045250 15 217 6.4 14.5 0.00 0.00 0.00 51 1008.1
20260503045106 15 244 6.4 14.5 0.00 0.00 0.00 51 1008.2
20260503045009 15 243 8.0 14.5 0.00 0.00 0.00 51 1008.2
20260503044918 15 207 8.0 14.5 0.00 0.00 0.00 50 1008.2
20260503044822 15 229 9.7 14.5 0.00 0.00 0.00 51 1008.2
20260503044726 15 227 8.0 12.9 0.00 0.00 0.00 50 1008.2
20260503044609 15 198 6.4 12.9 0.00 0.00 0.00 51 1008.2
20260503044513 15 206 6.4 12.9 0.00 0.00 0.00 50 1008.1
20260503044418 15 212 6.4 12.9 0.00 0.00 0.00 51 1008.1
20260503044326 15 192 6.4 12.9 0.00 0.00 0.00 51 1008.2
20260503044228 15 188 8.0 12.9 0.00 0.00 0.00 50 1008.2
20260503044132 15 212 8.0 12.9 0.00 0.00 0.00 50 1008.2
20260503044014 15 235 6.4 12.9 0.00 0.00 0.00 50 1008.2
20260503043919 15 213 6.4 12.9 0.00 0.00 0.00 50 1008.3
20260503043803 15 217 6.4 12.9 0.00 0.00 0.00 50 1008.3
20260503043707 15 211 4.8 12.9 0.00 0.00 0.00 51 1008.3
20260503043615 15 209 6.4 12.9 0.00 0.00 0.00 50 1008.3
20260503043520 15 210 8.0 12.9 0.00 0.00 0.00 50 1008.3
20260503043405 15 182 6.4 11.3 0.00 0.00 0.00 50 1008.3
20260503043309 15 194 6.4 11.3 0.00 0.00 0.00 50 1008.3
20260503043212 15 209 6.4 11.3 0.00 0.00 0.00 50 1008.3
20260503043115 15 217 6.4 12.9 0.00 0.00 0.00 50 1008.3
20260503043004 15 211 6.4 12.9 0.00 0.00 0.00 50 1008.4
20260503042908 15 211 6.4 12.9 0.00 0.00 0.00 50 1008.4
20260503042812 15 205 8.0 12.9 0.00 0.00 0.00 50 1008.4
20260503042716 15 240 8.0 12.9 0.00 0.00 0.00 50 1008.4
20260503042622 15 223 6.4 12.9 0.00 0.00 0.00 50 1008.4
20260503042507 15 211 6.4 12.9 0.00 0.00 0.00 50 1008.5
20260503042417 15 210 6.4 12.9 0.00 0.00 0.00 50 1008.4
20260503042322 15 203 6.4 12.9 0.00 0.00 0.00 50 1008.4
20260503042207 15 204 8.0 11.3 0.00 0.00 0.00 50 1008.5
20260503042111 15 199 8.0 11.3 0.00 0.00 0.00 50 1008.5
20260503042017 15 193 6.4 11.3 0.00 0.00 0.00 50 1008.4
20260503041907 15 215 4.8 11.3 0.00 0.00 0.00 51 1008.5
20260503041811 15 225 6.4 11.3 0.00 0.00 0.00 50 1008.5
20260503041717 15 223 6.4 11.3 0.00 0.00 0.00 50 1008.6
20260503041603 15 219 6.4 11.3 0.00 0.00 0.00 50 1008.5
20260503041509 15 222 6.4 11.3 0.00 0.00 0.00 50 1008.6
20260503041414 15 221 4.8 9.7 0.00 0.00 0.00 50 1008.6
20260503041304 15 212 4.8 9.7 0.00 0.00 0.00 51 1008.6
20260503041208 15 213 6.4 9.7 0.00 0.00 0.00 51 1008.6
20260503041113 15 213 6.4 9.7 0.00 0.00 0.00 50 1008.6
20260503041037 15 221 6.4 9.7 0.00 0.00 0.00 50 1008.5
20260503040921 15 211 6.4 11.3 0.00 0.00 0.00 50 1008.7
20260503040806 15 214 6.4 11.3 0.00 0.00 0.00 50 1008.7
20260503040715 15 209 6.4 11.3 0.00 0.00 0.00 50 1008.6
20260503040618 15 207 4.8 11.3 0.00 0.00 0.00 50 1008.6
20260503040522 15 202 4.8 11.3 0.00 0.00 0.00 51 1008.6
20260503040406 15 207 6.4 11.3 0.00 0.00 0.00 51 1008.6
20260503040329 15 207 6.4 11.3 0.00 0.00 0.00 50 1008.7
20260503040206 15 220 6.4 11.3 0.00 0.00 0.00 50 1008.7
20260503040115 15 217 6.4 11.3 0.00 0.00 0.00 50 1008.7
20260503040019 15 221 6.4 11.3 0.00 0.00 0.00 51 1008.7
20260503035904 15 207 6.4 11.3 0.00 0.00 0.00 51 1008.8
20260503035807 15 215 6.4 11.3 0.00 0.00 0.00 51 1008.7
20260503035712 15 198 6.4 11.3 0.00 0.00 0.00 51 1008.8
20260503035616 15 197 6.4 11.3 0.00 0.00 0.00 51 1008.8
20260503035540 15 195 6.4 11.3 0.00 0.00 0.00 51 1008.8
20260503035407 15 230 6.4 11.3 0.00 0.00 0.00 51 1008.8
20260503035311 15 198 4.8 11.3 0.00 0.00 0.00 51 1008.8
20260503035234 15 209 6.4 11.3 0.00 0.00 0.00 52 1008.8
20260503035117 15 209 4.8 11.3 0.00 0.00 0.00 52 1008.9
20260503035021 15 228 4.8 11.3 0.00 0.00 0.00 52 1009.0
20260503034944 15 219 3.2 11.3 0.00 0.00 0.00 52 1009.0
20260503034811 15 219 3.2 11.3 0.00 0.00 0.00 52 1009.0
20260503034735 15 219 4.8 11.3 0.00 0.00 0.00 52 1009.1
20260503034618 15 219 4.8 11.3 0.00 0.00 0.00 51 1009.1
20260503034521 15 204 4.8 9.7 0.00 0.00 0.00 52 1009.0
20260503034405 15 203 6.4 9.7 0.00 0.00 0.00 52 1009.0
20260503034309 15 202 6.4 9.7 0.00 0.00 0.00 52 1009.0
20260503034212 15 204 6.4 9.7 0.00 0.00 0.00 52 1009.0
20260503034139 15 211 4.8 9.7 0.00 0.00 0.00 52 1009.0
20260503034042 15 202 4.8 9.7 0.00 0.00 0.00 52 1009.1
20260503033925 15 208 4.8 9.7 0.00 0.00 0.00 51 1009.1
20260503033828 15 208 4.8 9.7 0.00 0.00 0.00 51 1009.2
20260503033706 15 211 6.4 9.7 0.00 0.00 0.00 52 1009.1
20260503033629 15 211 6.4 9.7 0.00 0.00 0.00 52 1009.2
20260503033511 15 220 4.8 9.7 0.00 0.00 0.00 51 1009.2
20260503033435 15 200 4.8 8.0 0.00 0.00 0.00 52 1009.2
20260503033323 15 198 4.8 11.3 0.00 0.00 0.00 52 1009.1
20260503033207 15 198 4.8 11.3 0.00 0.00 0.00 51 1009.2
20260503033111 15 198 4.8 11.3 0.00 0.00 0.00 51 1009.4
20260503033014 15 198 3.2 11.3 0.00 0.00 0.00 51 1009.3
20260503032919 15 198 4.8 12.9 0.00 0.00 0.00 50 1009.4
20260503032823 15 198 4.8 12.9 0.00 0.00 0.00 51 1009.4
20260503032731 15 197 4.8 12.9 0.00 0.00 0.00 51 1009.4
20260503032614 15 197 4.8 12.9 0.00 0.00 0.00 50 1009.4
20260503032537 15 198 6.4 12.9 0.00 0.00 0.00 50 1009.4
20260503032420 15 203 4.8 12.9 0.00 0.00 0.00 50 1009.4
20260503032304 15 200 6.4 12.9 0.00 0.00 0.00 50 1009.5
20260503032229 15 212 8.0 12.9 0.00 0.00 0.00 50 1009.5
20260503032106 15 205 8.0 12.9 0.00 0.00 0.00 50 1009.4
20260503032012 15 175 6.4 8.0 0.00 0.00 0.00 50 1009.4
20260503031916 15 184 6.4 8.0 0.00 0.00 0.00 49 1009.5
20260503031819 15 194 6.4 8.0 0.00 0.00 0.00 49 1009.5
20260503031705 15 197 4.8 6.4 0.00 0.00 0.00 49 1009.7
20260503031609 15 217 3.2 6.4 0.00 0.00 0.00 49 1009.7
20260503031533 15 219 1.6 4.8 0.00 0.00 0.00 49 1009.8
20260503031420 15 219 1.6 4.8 0.00 0.00 0.00 48 1009.9
20260503031324 15 219 1.6 4.8 0.00 0.00 0.00 49 1009.9
20260503031227 15 219 1.6 4.8 0.00 0.00 0.00 49 1010.0
20260503031104 15 219 0.0 4.8 0.00 0.00 0.00 49 1010.0
20260503031009 15 219 1.6 6.4 0.00 0.00 0.00 49 1010.0
20260503030932 15 219 1.6 6.4 0.00 0.00 0.00 48 1009.9
20260503030815 15 219 3.2 6.4 0.00 0.00 0.00 49 1010.0
20260503030722 15 219 3.2 6.4 0.00 0.00 0.00 49 1010.0
20260503030605 15 219 3.2 6.4 0.00 0.00 0.00 49 1010.0
20260503030529 15 219 3.2 6.4 0.00 0.00 0.00 49 1009.9
20260503030412 15 219 3.2 6.4 0.00 0.00 0.00 48 1010.0
20260503030315 15 219 3.2 6.4 0.00 0.00 0.00 48 1010.0
20260503030219 15 219 3.2 6.4 0.00 0.00 0.00 49 1010.0
20260503030127 15 219 3.2 6.4 0.00 0.00 0.00 49 1010.0
20260503030009 15 219 3.2 6.4 0.00 0.00 0.00 49 1010.0
20260503025913 15 219 3.2 6.4 0.00 0.00 0.00 49 1010.0
20260503025818 15 219 3.2 6.4 0.00 0.00 0.00 49 1010.0
20260503025722 15 217 1.6 6.4 0.00 0.00 0.00 49 1010.0
20260503025606 15 217 3.2 8.0 0.00 0.00 0.00 49 1010.0
20260503025529 15 217 3.2 8.0 0.00 0.00 0.00 49 1010.1
20260503025415 15 217 3.2 8.0 0.00 0.00 0.00 48 1010.2
20260503025319 15 217 3.2 8.0 0.00 0.00 0.00 48 1010.2
20260503025243 15 217 4.8 8.0 0.00 0.00 0.00 48 1010.2
20260503025107 15 217 4.8 8.0 0.00 0.00 0.00 49 1010.3
20260503025032 15 216 4.8 8.0 0.00 0.00 0.00 48 1010.3
20260503024917 15 215 4.8 8.0 0.00 0.00 0.00 48 1010.3
20260503024806 15 215 6.4 8.0 0.00 0.00 0.00 48 1010.4
20260503024731 15 236 6.4 8.0 0.00 0.00 0.00 48 1010.4
20260503024615 15 235 4.8 8.0 0.00 0.00 0.00 49 1010.5
20260503024519 15 248 4.8 8.0 0.00 0.00 0.00 49 1010.4
20260503024406 15 250 4.8 8.0 0.00 0.00 0.00 48 1010.5
20260503024330 15 250 3.2 8.0 0.00 0.00 0.00 48 1010.6
20260503024205 16 249 3.2 8.0 0.00 0.00 0.00 49 1010.6
20260503024134 16 249 3.2 8.0 0.00 0.00 0.00 48 1010.5
20260503024037 16 249 4.8 8.0 0.00 0.00 0.00 48 1010.6
20260503023919 16 249 4.8 8.0 0.00 0.00 0.00 47 1010.6
20260503023823 16 249 4.8 8.0 0.00 0.00 0.00 48 1010.6
20260503023727 16 238 4.8 8.0 0.00 0.00 0.00 48 1010.6
20260503023604 16 238 4.8 11.3 0.00 0.00 0.00 47 1010.6
20260503023528 16 254 4.8 12.9 0.00 0.00 0.00 48 1010.6
20260503023431 16 255 4.8 12.9 0.00 0.00 0.00 48 1010.6
20260503023338 16 255 4.8 12.9 0.00 0.00 0.00 48 1010.6
20260503023220 16 259 6.4 12.9 0.00 0.00 0.00 48 1010.6
20260503023106 16 270 6.4 12.9 0.00 0.00 0.00 47 1010.6
20260503023030 16 263 4.8 12.9 0.00 0.00 0.00 48 1010.6
20260503022913 16 254 4.8 12.9 0.00 0.00 0.00 48 1010.6
20260503022837 16 254 4.8 12.9 0.00 0.00 0.00 48 1010.6
20260503022740 16 294 4.8 12.9 0.00 0.00 0.00 48 1010.6
20260503022642 16 244 3.2 11.3 0.00 0.00 0.00 48 1010.6
20260503022508 16 244 3.2 11.3 0.00 0.00 0.00 47 1010.7
20260503022411 16 265 3.2 11.3 0.00 0.00 0.00 47 1010.6
20260503022316 16 271 4.8 12.9 0.00 0.00 0.00 47 1010.6
20260503022220 16 271 4.8 17.7 0.00 0.00 0.00 47 1010.7
20260503022123 16 277 4.8 17.7 0.00 0.00 0.00 47 1010.7
20260503022027 16 251 4.8 17.7 0.00 0.00 0.00 47 1010.7
20260503021914 16 263 4.8 17.7 0.00 0.00 0.00 47 1010.7
20260503021817 16 245 4.8 17.7 0.00 0.00 0.00 47 1010.7
20260503021721 16 268 4.8 17.7 0.00 0.00 0.00 47 1010.7
20260503021604 16 257 8.0 17.7 0.00 0.00 0.00 48 1010.7
20260503021529 16 274 11.3 17.7 0.00 0.00 0.00 48 1010.7
20260503021405 16 263 9.7 17.7 0.00 0.00 0.00 47 1010.7
20260503021312 16 254 6.4 17.7 0.00 0.00 0.00 46 1010.8
20260503021217 16 259 6.4 22.5 0.00 0.00 0.00 47 1010.8
20260503021121 16 261 4.8 32.2 0.00 0.00 0.00 47 1010.8
20260503021005 16 246 4.8 33.8 0.00 0.00 0.00 47 1010.8
20260503020907 16 242 6.4 33.8 0.00 0.00 0.00 47 1010.8
20260503020812 16 281 8.0 33.8 0.00 0.00 0.00 46 1010.9
20260503020720 16 289 9.7 33.8 0.00 0.00 0.00 47 1010.9
20260503020643 16 313 11.3 33.8 0.00 0.00 0.00 46 1011.0
20260503020505 16 306 17.7 33.8 0.00 0.00 0.00 46 1011.1
20260503020430 16 314 20.9 33.8 0.00 0.00 0.00 46 1011.1
20260503020306 16 300 20.9 33.8 0.00 0.00 0.00 45 1011.1
20260503020210 16 275 14.5 33.8 0.00 0.00 0.00 45 1011.1
20260503020112 16 290 11.3 22.5 0.00 0.00 0.00 45 1011.1
20260503020020 16 262 9.7 22.5 0.00 0.00 0.00 44 1011.1
20260503015924 16 308 9.7 22.5 0.00 0.00 0.00 45 1011.1
20260503015807 16 294 11.3 22.5 0.00 0.00 0.00 44 1011.1
20260503015708 16 338 9.7 22.5 0.00 0.00 0.00 44 1011.1
20260503015612 16 294 11.3 22.5 0.00 0.00 0.00 44 1011.0
20260503015536 16 321 14.5 22.5 0.00 0.00 0.00 45 1011.1
20260503015403 16 333 14.5 22.5 0.00 0.00 0.00 44 1011.1
20260503015308 16 315 16.1 22.5 0.00 0.00 0.00 43 1011.0
20260503015210 16 304 17.7 30.6 0.00 0.00 0.00 45 1011.0
20260503015115 16 295 16.1 30.6 0.00 0.00 0.00 44 1010.9
20260503015018 16 311 14.5 30.6 0.00 0.00 0.00 44 1011.0
20260503014922 16 301 16.1 30.6 0.00 0.00 0.00 44 1011.0
20260503014829 16 311 19.3 30.6 0.00 0.00 0.00 44 1010.9
20260503014705 16 292 19.3 30.6 0.00 0.00 0.00 43 1011.0
20260503014608 16 286 17.7 30.6 0.00 0.00 0.00 43 1010.9
20260503014531 17 309 20.9 30.6 0.00 0.00 0.00 43 1010.9
20260503014413 17 294 22.5 30.6 0.00 0.00 0.00 43 1010.9
20260503014337 17 300 20.9 30.6 0.00 0.00 0.00 43 1010.9
20260503014219 17 309 19.3 30.6 0.00 0.00 0.00 42 1010.9
20260503014126 17 281 19.3 30.6 0.00 0.00 0.00 43 1010.9
20260503014049 17 280 20.9 30.6 0.00 0.00 0.00 43 1010.8
20260503013905 17 291 22.5 30.6 0.00 0.00 0.00 43 1010.9
20260503013808 17 285 20.9 30.6 0.00 0.00 0.00 43 1010.9
20260503013732 17 300 19.3 29.0 0.00 0.00 0.00 43 1010.9
20260503013635 17 292 19.3 29.0 0.00 0.00 0.00 43 1010.8
20260503013517 17 302 20.9 29.0 0.00 0.00 0.00 43 1010.7
20260503013405 17 293 20.9 30.6 0.00 0.00 0.00 43 1010.8
20260503013307 17 307 17.7 30.6 0.00 0.00 0.00 43 1010.8
20260503013209 17 295 14.5 30.6 0.00 0.00 0.00 43 1010.8
20260503013112 17 318 16.1 30.6 0.00 0.00 0.00 43 1010.8
20260503013016 17 279 16.1 30.6 0.00 0.00 0.00 43 1010.8
20260503012918 17 312 14.5 30.6 0.00 0.00 0.00 43 1010.8
20260503012806 17 279 14.5 30.6 0.00 0.00 0.00 43 1010.8
20260503012728 17 300 19.3 30.6 0.00 0.00 0.00 43 1010.8
20260503012604 16 273 22.5 30.6 0.00 0.00 0.00 42 1010.7
20260503012507 16 279 22.5 27.4 0.00 0.00 0.00 43 1010.8
20260503012430 16 293 19.3 27.4 0.00 0.00 0.00 43 1010.8
20260503012313 16 277 12.9 27.4 0.00 0.00 0.00 44 1010.7
20260503012215 16 306 9.7 17.7 0.00 0.00 0.00 45 1010.8
20260503012139 16 298 11.3 16.1 0.00 0.00 0.00 45 1010.8
20260503012004 16 284 12.9 16.1 0.00 0.00 0.00 44 1010.7
20260503011906 16 293 11.3 16.1 0.00 0.00 0.00 45 1010.7
20260503011831 16 299 9.7 16.1 0.00 0.00 0.00 46 1010.8
20260503011712 16 284 11.3 16.1 0.00 0.00 0.00 45 1010.8
20260503011615 16 292 11.3 16.1 0.00 0.00 0.00 45 1010.7
20260503011517 16 291 9.7 16.1 0.00 0.00 0.00 44 1010.7
20260503011403 16 281 8.0 16.1 0.00 0.00 0.00 46 1010.8
20260503011308 16 292 11.3 16.1 0.00 0.00 0.00 46 1010.7
20260503011210 16 277 11.3 16.1 0.00 0.00 0.00 44 1010.7
20260503011113 16 298 11.3 14.5 0.00 0.00 0.00 45 1010.8
20260503011015 17 286 12.9 14.5 0.00 0.00 0.00 45 1010.8
20260503010939 17 299 9.7 14.5 0.00 0.00 0.00 44 1010.7
20260503010822 17 308 6.4 16.1 0.00 0.00 0.00 45 1010.8
20260503010730 17 298 6.4 16.1 0.00 0.00 0.00 44 1010.7
20260503010605 17 276 6.4 16.1 0.00 0.00 0.00 45 1010.7
20260503010510 17 261 4.8 16.1 0.00 0.00 0.00 45 1010.7
20260503010434 17 267 4.8 16.1 0.00 0.00 0.00 45 1010.8
20260503010316 17 246 6.4 16.1 0.00 0.00 0.00 45 1010.7
20260503010220 17 290 8.0 16.1 0.00 0.00 0.00 45 1010.7
20260503010106 17 306 8.0 16.1 0.00 0.00 0.00 43 1010.8
20260503010030 17 286 8.0 16.1 0.00 0.00 0.00 43 1010.7
20260503005905 17 265 6.4 12.9 0.00 0.00 0.00 44 1010.8
20260503005810 17 279 6.4 12.9 0.00 0.00 0.00 44 1010.8
20260503005712 17 266 8.0 12.9 0.00 0.00 0.00 44 1010.7
20260503005616 17 266 6.4 14.5 0.00 0.00 0.00 43 1010.7
20260503005540 17 284 6.4 14.5 0.00 0.00 0.00 45 1010.8
20260503005404 17 274 6.4 14.5 0.00 0.00 0.00 43 1010.8
20260503005327 17 264 6.4 14.5 0.00 0.00 0.00 43 1010.7
20260503005203 17 255 4.8 14.5 0.00 0.00 0.00 44 1010.8
20260503005128 17 255 6.4 14.5 0.00 0.00 0.00 44 1010.8
20260503005006 17 261 8.0 16.1 0.00 0.00 0.00 44 1010.8
20260503004909 17 293 9.7 16.1 0.00 0.00 0.00 43 1010.8
20260503004818 17 261 9.7 16.1 0.00 0.00 0.00 43 1010.8
20260503004743 17 278 8.0 16.1 0.00 0.00 0.00 44 1010.8
20260503004626 17 281 6.4 16.1 0.00 0.00 0.00 44 1010.8
20260503004504 17 256 8.0 16.1 0.00 0.00 0.00 43 1010.8
20260503004406 17 281 9.7 16.1 0.00 0.00 0.00 44 1010.8
20260503004331 17 269 11.3 16.1 0.00 0.00 0.00 44 1010.9
20260503004216 17 290 9.7 16.1 0.00 0.00 0.00 45 1010.8
20260503004139 17 275 8.0 16.1 0.00 0.00 0.00 46 1010.9
20260503004027 17 329 8.0 16.1 0.00 0.00 0.00 45 1010.8
20260503003910 17 282 6.4 16.1 0.00 0.00 0.00 44 1010.9
20260503003814 17 297 4.8 16.1 0.00 0.00 0.00 44 1010.8
20260503003719 17 293 4.8 16.1 0.00 0.00 0.00 44 1010.8
20260503003604 17 251 4.8 16.1 0.00 0.00 0.00 43 1010.8
20260503003510 17 251 4.8 16.1 0.00 0.00 0.00 43 1010.8
20260503003417 17 253 9.7 16.1 0.00 0.00 0.00 43 1010.7
20260503003322 17 273 11.3 16.1 0.00 0.00 0.00 44 1010.8
20260503003226 17 279 6.4 12.9 0.00 0.00 0.00 43 1010.8
20260503003110 17 264 6.4 17.7 0.00 0.00 0.00 43 1010.8
20260503003014 17 264 6.4 17.7 0.00 0.00 0.00 43 1010.8
20260503002919 17 271 9.7 17.7 0.00 0.00 0.00 43 1010.8
20260503002827 17 263 9.7 17.7 0.00 0.00 0.00 43 1010.8
20260503002703 17 300 4.8 17.7 0.00 0.00 0.00 45 1010.9
20260503002627 17 294 4.8 17.7 0.00 0.00 0.00 45 1010.9
20260503002511 17 279 8.0 17.7 0.00 0.00 0.00 43 1010.9
20260503002436 17 281 11.3 17.7 0.00 0.00 0.00 44 1011.0
20260503002319 17 255 11.3 17.7 0.00 0.00 0.00 43 1011.0
20260503002222 17 281 6.4 16.1 0.00 0.00 0.00 45 1010.9
20260503002131 17 284 3.2 12.9 0.00 0.00 0.00 46 1011.0
20260503002008 17 285 6.4 12.9 0.00 0.00 0.00 45 1011.0
20260503001931 17 298 8.0 12.9 0.00 0.00 0.00 45 1011.0
20260503001804 17 286 8.0 12.9 0.00 0.00 0.00 45 1011.0
20260503001728 17 345 6.4 12.9 0.00 0.00 0.00 45 1011.0
20260503001652 17 293 8.0 12.9 0.00 0.00 0.00 46 1011.0
20260503001506 17 298 6.4 12.9 0.00 0.00 0.00 45 1010.9
20260503001414 17 294 4.8 12.9 0.00 0.00 0.00 46 1011.0
20260503001318 17 290 4.8 12.9 0.00 0.00 0.00 45 1010.9
20260503001222 17 305 6.4 12.9 0.00 0.00 0.00 43 1011.0
20260503001127 17 345 8.0 14.5 0.00 0.00 0.00 42 1011.0
20260503001009 17 318 8.0 16.1 0.00 0.00 0.00 42 1011.0
20260503000933 17 5 8.0 16.1 0.00 0.00 0.00 42 1011.0
20260503000816 17 302 8.0 17.7 0.00 0.00 0.00 45 1011.0
20260503000704 17 306 8.0 20.9 0.00 0.00 0.00 42 1011.0
20260503000608 17 296 8.0 22.5 0.00 0.00 0.00 43 1011.1
20260503000532 17 320 9.7 22.5 0.00 0.00 0.00 42 1011.1
20260503000437 17 309 9.7 22.5 0.00 0.00 0.00 42 1011.1
20260503000320 17 338 11.3 22.5 0.00 0.00 0.00 43 1011.0
20260503000223 17 297 11.3 22.5 0.00 0.00 0.00 43 1011.1
20260503000111 17 308 12.9 22.5 0.00 0.00 0.00 42 1011.1
20260503000015 17 290 12.9 22.5 0.00 0.00 0.00 41 1011.0
20260502235918 17 308 14.5 22.5 0.00 0.00 0.00 42 1011.2
20260502235843 17 323 16.1 22.5 0.00 0.00 0.00 42 1011.1
20260502235727 17 321 14.5 19.3 0.00 0.00 0.00 41 1011.1
20260502235604 17 321 12.9 19.3 0.00 0.00 0.00 40 1011.2
20260502235507 17 315 12.9 19.3 0.00 0.00 0.00 41 1011.1
20260502235416 17 284 9.7 19.3 0.00 0.00 0.00 43 1011.3
20260502235321 17 294 8.0 19.3 0.00 0.00 0.00 42 1011.2
20260502235226 17 292 9.7 20.9 0.00 0.00 0.00 41 1011.2
20260502235108 17 345 11.3 20.9 0.00 0.00 0.00 41 1011.2
20260502235011 17 318 11.3 20.9 0.00 0.00 0.00 42 1011.2
20260502234935 17 317 6.4 20.9 0.00 0.00 0.00 41 1011.2
20260502234839 17 296 6.4 20.9 0.00 0.00 0.00 40 1011.2
20260502234706 17 347 9.7 20.9 0.00 0.00 0.00 40 1011.2
20260502234630 17 346 11.3 20.9 0.00 0.00 0.00 41 1011.2
20260502234507 17 286 14.5 22.5 0.00 0.00 0.00 40 1011.2
20260502234411 17 252 9.7 22.5 0.00 0.00 0.00 40 1011.2
20260502234335 17 256 6.4 24.1 0.00 0.00 0.00 40 1011.1
20260502234216 17 346 8.0 24.1 0.00 0.00 0.00 40 1011.1
20260502234105 17 263 8.0 29.0 0.00 0.00 0.00 41 1011.2
20260502234028 17 292 8.0 29.0 0.00 0.00 0.00 40 1011.2
20260502233905 17 275 11.3 29.0 0.00 0.00 0.00 41 1011.1
20260502233809 17 270 14.5 29.0 0.00 0.00 0.00 40 1011.1
20260502233714 17 277 16.1 29.0 0.00 0.00 0.00 39 1011.1
20260502233619 17 275 16.1 29.0 0.00 0.00 0.00 39 1011.1
20260502233507 17 279 17.7 29.0 0.00 0.00 0.00 40 1011.2
20260502233409 17 287 19.3 29.0 0.00 0.00 0.00 40 1011.1
20260502233334 17 346 16.1 29.0 0.00 0.00 0.00 39 1011.1
20260502233216 17 351 8.0 22.5 0.00 0.00 0.00 42 1011.2
20260502233141 17 335 4.8 20.9 0.00 0.00 0.00 41 1011.2
20260502233024 17 278 8.0 20.9 0.00 0.00 0.00 40 1011.2
20260502232909 17 263 11.3 20.9 0.00 0.00 0.00 41 1011.4
20260502232812 17 290 9.7 20.9 0.00 0.00 0.00 40 1011.4
20260502232720 17 296 9.7 20.9 0.00 0.00 0.00 41 1011.4
20260502232625 17 291 12.9 20.9 0.00 0.00 0.00 41 1011.3
20260502232509 17 300 12.9 20.9 0.00 0.00 0.00 43 1011.3
20260502232413 17 310 12.9 20.9 0.00 0.00 0.00 39 1011.3
20260502232319 17 242 12.9 20.9 0.00 0.00 0.00 39 1011.2
20260502232221 17 235 9.7 19.3 0.00 0.00 0.00 39 1011.4
20260502232128 17 286 12.9 19.3 0.00 0.00 0.00 42 1011.4
20260502232012 17 290 12.9 19.3 0.00 0.00 0.00 41 1011.4
20260502231917 17 298 12.9 19.3 0.00 0.00 0.00 39 1011.4
20260502231841 17 291 12.9 19.3 0.00 0.00 0.00 40 1011.4
20260502231704 17 306 12.9 20.9 0.00 0.00 0.00 43 1011.4
20260502231608 17 311 11.3 20.9 0.00 0.00 0.00 42 1011.4
20260502231513 17 272 11.3 20.9 0.00 0.00 0.00 42 1011.4
20260502231420 17 283 8.0 20.9 0.00 0.00 0.00 42 1011.4
20260502231305 17 319 8.0 24.1 0.00 0.00 0.00 41 1011.4
20260502231228 17 279 8.0 24.1 0.00 0.00 0.00 39 1011.4
20260502231104 17 250 12.9 24.1 0.00 0.00 0.00 39 1011.4
20260502231007 17 340 14.5 24.1 0.00 0.00 0.00 40 1011.4
20260502230912 17 318 16.1 24.1 0.00 0.00 0.00 42 1011.4
20260502230820 17 294 16.1 24.1 0.00 0.00 0.00 41 1011.4
20260502230705 17 294 14.5 24.1 0.00 0.00 0.00 41 1011.5
20260502230608 17 284 16.1 24.1 0.00 0.00 0.00 40 1011.4
20260502230511 17 284 12.9 24.1 0.00 0.00 0.00 40 1011.5
20260502230414 17 212 8.0 19.3 0.00 0.00 0.00 40 1011.6
20260502230316 17 279 3.2 11.3 0.00 0.00 0.00 42 1011.6
20260502230222 17 279 3.2 14.5 0.00 0.00 0.00 41 1011.6
20260502230108 17 279 1.6 14.5 0.00 0.00 0.00 41 1011.6
20260502230031 17 279 3.2 14.5 0.00 0.00 0.00 41 1011.6
20260502225906 17 280 4.8 14.5 0.00 0.00 0.00 41 1011.6
20260502225809 17 306 6.4 14.5 0.00 0.00 0.00 41 1011.7
20260502225714 17 273 8.0 14.5 0.00 0.00 0.00 41 1011.7
20260502225617 17 295 8.0 14.5 0.00 0.00 0.00 41 1011.8
20260502225506 17 278 8.0 14.5 0.00 0.00 0.00 40 1011.8
20260502225430 17 273 8.0 14.5 0.00 0.00 0.00 40 1011.7
20260502225306 17 285 6.4 12.9 0.00 0.00 0.00 44 1011.7
20260502225212 17 294 8.0 16.1 0.00 0.00 0.00 42 1011.7
20260502225114 17 301 8.0 17.7 0.00 0.00 0.00 40 1011.7
20260502225018 17 292 6.4 17.7 0.00 0.00 0.00 41 1011.7
20260502224926 17 292 8.0 17.7 0.00 0.00 0.00 40 1011.7
20260502224827 17 331 8.0 17.7 0.00 0.00 0.00 40 1011.7
20260502224752 17 286 8.0 17.7 0.00 0.00 0.00 40 1011.6
20260502224607 17 287 8.0 17.7 0.00 0.00 0.00 42 1011.7
20260502224512 17 300 9.7 17.7 0.00 0.00 0.00 40 1011.7
20260502224416 17 282 9.7 17.7 0.00 0.00 0.00 40 1011.7
20260502224321 17 313 9.7 17.7 0.00 0.00 0.00 41 1011.7
20260502224249 17 309 11.3 17.7 0.00 0.00 0.00 40 1011.8
20260502224105 17 288 8.0 16.1 0.00 0.00 0.00 40 1011.9
20260502224006 17 317 6.4 16.1 0.00 0.00 0.00 41 1011.8
20260502223931 17 279 4.8 16.1 0.00 0.00 0.00 41 1011.8
20260502223810 17 305 4.8 24.1 0.00 0.00 0.00 41 1011.9
20260502223712 17 331 6.4 25.7 0.00 0.00 0.00 40 1011.8
20260502223636 17 342 8.0 25.7 0.00 0.00 0.00 40 1011.8
20260502223517 17 350 9.7 25.7 0.00 0.00 0.00 40 1011.8
20260502223404 17 285 9.7 25.7 0.00 0.00 0.00 40 1011.8
20260502223307 17 301 9.7 25.7 0.00 0.00 0.00 41 1011.9
20260502223212 17 335 11.3 25.7 0.00 0.00 0.00 39 1011.8
20260502223115 17 317 14.5 25.7 0.00 0.00 0.00 41 1011.9
20260502223020 17 299 16.1 25.7 0.00 0.00 0.00 40 1011.8
20260502222944 17 290 16.1 25.7 0.00 0.00 0.00 39 1011.8
20260502222807 17 293 14.5 24.1 0.00 0.00 0.00 40 1011.9
20260502222712 17 316 12.9 24.1 0.00 0.00 0.00 40 1011.9
20260502222616 17 313 11.3 24.1 0.00 0.00 0.00 40 1011.9
20260502222541 17 297 14.5 24.1 0.00 0.00 0.00 40 1011.9
20260502222404 17 294 17.7 24.1 0.00 0.00 0.00 38 1011.8
20260502222328 17 306 16.1 24.1 0.00 0.00 0.00 39 1011.9
20260502222205 17 294 17.7 24.1 0.00 0.00 0.00 40 1011.9
20260502222112 17 309 17.7 24.1 0.00 0.00 0.00 40 1011.9
20260502222016 17 296 16.1 20.9 0.00 0.00 0.00 39 1011.9
20260502221920 17 290 12.9 20.9 0.00 0.00 0.00 40 1011.9
20260502221823 17 291 11.3 19.3 0.00 0.00 0.00 40 1011.9
20260502221747 17 303 12.9 19.3 0.00 0.00 0.00 39 1011.9
20260502221603 17 273 12.9 24.1 0.00 0.00 0.00 40 1011.9
20260502221511 17 278 14.5 24.1 0.00 0.00 0.00 39 1011.8
20260502221436 17 283 12.9 24.1 0.00 0.00 0.00 39 1011.8
20260502221319 17 304 11.3 24.1 0.00 0.00 0.00 40 1011.9
20260502221204 17 306 12.9 24.1 0.00 0.00 0.00 40 1011.8
20260502221127 17 292 9.7 24.1 0.00 0.00 0.00 41 1011.9
20260502221030 17 336 11.3 24.1 0.00 0.00 0.00 40 1011.9
20260502220914 17 310 14.5 24.1 0.00 0.00 0.00 39 1011.9
20260502220819 17 298 17.7 24.1 0.00 0.00 0.00 38 1011.9
20260502220727 17 296 17.7 24.1 0.00 0.00 0.00 39 1011.9
20260502220629 17 288 17.7 22.5 0.00 0.00 0.00 38 1011.9
20260502220507 17 286 16.1 22.5 0.00 0.00 0.00 40 1011.9
20260502220409 17 309 14.5 22.5 0.00 0.00 0.00 39 1011.9
20260502220314 17 273 16.1 22.5 0.00 0.00 0.00 40 1011.9
20260502220217 18 292 16.1 22.5 0.00 0.00 0.00 39 1012.0
20260502220104 18 302 12.9 20.9 0.00 0.00 0.00 41 1012.0
20260502220008 18 269 12.9 20.9 0.00 0.00 0.00 39 1012.0
20260502215932 18 292 9.7 20.9 0.00 0.00 0.00 40 1012.0
20260502215817 18 291 11.3 20.9 0.00 0.00 0.00 39 1012.0
20260502215719 18 294 14.5 20.9 0.00 0.00 0.00 40 1012.0
20260502215622 18 269 14.5 20.9 0.00 0.00 0.00 39 1012.0
20260502215509 18 294 12.9 20.9 0.00 0.00 0.00 39 1011.9
20260502215433 18 304 12.9 20.9 0.00 0.00 0.00 39 1012.1
20260502215336 18 298 11.3 22.5 0.00 0.00 0.00 41 1012.0
20260502215240 18 318 11.3 22.5 0.00 0.00 0.00 40 1012.0
20260502215104 18 279 11.3 22.5 0.00 0.00 0.00 39 1012.1
20260502215007 18 308 11.3 22.5 0.00 0.00 0.00 41 1012.1
20260502214912 18 319 12.9 22.5 0.00 0.00 0.00 41 1012.1
20260502214816 18 301 12.9 22.5 0.00 0.00 0.00 41 1012.0
20260502214725 18 312 14.5 22.5 0.00 0.00 0.00 39 1012.1
20260502214650 18 305 16.1 22.5 0.00 0.00 0.00 39 1012.0
20260502214505 18 295 17.7 22.5 0.00 0.00 0.00 40 1012.1
20260502214408 18 294 14.5 22.5 0.00 0.00 0.00 41 1012.1
20260502214331 18 286 12.9 25.7 0.00 0.00 0.00 41 1012.1
20260502214213 18 285 14.5 25.7 0.00 0.00 0.00 41 1012.1
20260502214117 18 318 16.1 29.0 0.00 0.00 0.00 40 1012.2
20260502214025 18 312 14.5 29.0 0.00 0.00 0.00 41 1012.2
20260502213949 18 306 14.5 29.0 0.00 0.00 0.00 39 1012.1
20260502213805 18 297 14.5 29.0 0.00 0.00 0.00 42 1012.1
20260502213710 18 302 14.5 29.0 0.00 0.00 0.00 41 1012.2
20260502213614 17 279 16.1 30.6 0.00 0.00 0.00 39 1012.2
20260502213517 17 302 16.1 30.6 0.00 0.00 0.00 41 1012.2
20260502213426 17 333 19.3 30.6 0.00 0.00 0.00 39 1012.3
20260502213309 17 305 22.5 30.6 0.00 0.00 0.00 40 1012.3
20260502213234 17 295 20.9 30.6 0.00 0.00 0.00 42 1012.3
20260502213117 17 284 19.3 30.6 0.00 0.00 0.00 39 1012.3
20260502213022 17 281 17.7 30.6 0.00 0.00 0.00 38 1012.3
20260502212926 17 303 19.3 30.6 0.00 0.00 0.00 38 1012.3
20260502212803 17 300 19.3 30.6 0.00 0.00 0.00 39 1012.3
20260502212712 18 296 14.5 27.4 0.00 0.00 0.00 39 1012.4
20260502212617 17 286 14.5 27.4 0.00 0.00 0.00 38 1012.5
20260502212520 18 293 14.5 27.4 0.00 0.00 0.00 39 1012.4
20260502212424 18 277 12.9 27.4 0.00 0.00 0.00 38 1012.5
20260502212348 18 280 16.1 27.4 0.00 0.00 0.00 38 1012.5
20260502212204 18 237 14.5 27.4 0.00 0.00 0.00 39 1012.6
20260502212113 18 251 9.7 17.7 0.00 0.00 0.00 41 1012.5
20260502212017 17 259 6.4 17.7 0.00 0.00 0.00 40 1012.5
20260502211921 17 290 6.4 17.7 0.00 0.00 0.00 42 1012.5
20260502211825 17 288 6.4 19.3 0.00 0.00 0.00 40 1012.5
20260502211749 17 321 8.0 19.3 0.00 0.00 0.00 41 1012.6
20260502211603 17 295 8.0 19.3 0.00 0.00 0.00 39 1012.6
20260502211507 17 300 11.3 22.5 0.00 0.00 0.00 39 1012.6
20260502211415 17 292 14.5 22.5 0.00 0.00 0.00 41 1012.6
20260502211319 17 290 14.5 32.2 0.00 0.00 0.00 40 1012.6
20260502211221 17 284 14.5 32.2 0.00 0.00 0.00 40 1012.7
20260502211106 17 281 14.5 32.2 0.00 0.00 0.00 39 1012.7
20260502211031 17 294 14.5 32.2 0.00 0.00 0.00 40 1012.7
20260502210912 17 280 12.9 32.2 0.00 0.00 0.00 40 1012.7
20260502210820 17 297 14.5 32.2 0.00 0.00 0.00 38 1012.8
20260502210724 17 271 17.7 32.2 0.00 0.00 0.00 38 1012.9
20260502210649 17 267 22.5 32.2 0.00 0.00 0.00 39 1012.9
20260502210504 17 279 22.5 30.6 0.00 0.00 0.00 39 1012.9
20260502210428 17 288 20.9 30.6 0.00 0.00 0.00 40 1012.8
20260502210305 18 349 17.7 25.7 0.00 0.00 0.00 40 1012.8
20260502210210 17 294 12.9 22.5 0.00 0.00 0.00 40 1012.9
20260502210119 17 304 11.3 20.9 0.00 0.00 0.00 43 1012.8
20260502210004 17 301 11.3 20.9 0.00 0.00 0.00 40 1012.9
20260502205928 17 348 9.7 20.9 0.00 0.00 0.00 40 1012.9
20260502205805 17 313 9.7 20.9 0.00 0.00 0.00 40 1013.0
20260502205711 17 23 9.7 22.5 0.00 0.00 0.00 41 1013.0
20260502205635 17 327 9.7 24.1 0.00 0.00 0.00 39 1012.8
20260502205522 17 311 12.9 32.2 0.00 0.00 0.00 39 1013.0
20260502205426 17 275 16.1 32.2 0.00 0.00 0.00 38 1013.0
20260502205349 17 289 16.1 32.2 0.00 0.00 0.00 40 1013.0
20260502205205 17 284 16.1 32.2 0.00 0.00 0.00 40 1013.0
20260502205129 17 308 16.1 32.2 0.00 0.00 0.00 40 1013.0
20260502205031 17 300 16.1 32.2 0.00 0.00 0.00 41 1013.0
20260502204914 17 268 17.7 32.2 0.00 0.00 0.00 38 1013.1
20260502204818 17 302 20.9 32.2 0.00 0.00 0.00 39 1013.2